www.pogodaiklimat.ru

Погода и климат >> Архив погоды >> Дания >> Мейруп


ПОГОДА в Мейрупе

  • Прогноз погоды в Мейрупе
  • Монитор погоды в Мейрупе

АРХИВ ПОГОДЫ в Мейрупе

Время (UTC), дата Ветер
(напр.,м/с)
 
Видим.   Явления Облачность Т
(С)
Тd
(С)
f
(%)
Тe
(С)
Тes
(С)
Комфортность P
(гПа)
Po
(гПа)
Тmin
(С)
Tmax
(С)
R
(мм)
R24
(мм)
S
(см)
07 9.09 В 2 н/о н/о +11.1 +11.1 100 +10 +10 1016.1 1009.6
08 9.09 ЮВ 1 н/о н/о +11.6 +11.6 100 +11 +11 1015.8 1009.4
09 9.09 ЮВ 1 н/о н/о +12.3 +12.3 100 +12 +12 1015.4 1009.0
10 9.09 В 1 н/о н/о +13.0 +13.0 100 +14 +14 1014.9 1008.5
11 9.09 В 2 н/о н/о +14.6 +12.0 84 +15 +15 1014.5 1008.1
12 9.09 В 1 н/о н/о +15.3 +12.5 83 +16 +16 1014.5 1008.2
13 9.09 В 2 н/о н/о +15.7 +12.4 81 +16 +16 1014.2 1007.9
14 9.09 СВ 2 н/о н/о +15.9 +12.1 78 +16 +16 1013.9 1007.6
15 9.09 СЗ 1 н/о н/о +15.8 +10.1 69 +17 +17 1013.4 1007.1
16 9.09 С 2 н/о н/о +15.1 +11.5 79 +15 +15 1013.5 1007.1
17 9.09 С 2 н/о н/о +14.1 +12.9 92 +13 +13 1013.7 1007.3
18 9.09 СВ 2 н/о н/о +12.8 +11.8 94 +12 +12 1013.9 1007.5 +10.7 +16.1
19 9.09 СВ 2 н/о н/о +12.5 +11.9 96 +11 +11 1013.8 1007.4
20 9.09 С 1 н/о н/о +12.2 +11.6 96 +12 +12 1013.6 1007.2
21 9.09 СЗ 2 н/о н/о +12.4 +12.2 99 +12 +12 1013.4 1007.0
22 9.09 СЗ 2 н/о н/о +12.4 +12.2 99 +12 +12 1012.9 1006.5
23 9.09 СЗ 2 н/о н/о +12.6 +12.4 99 +12 +12 1012.7 1006.3
00 10.09 СЗ 2 н/о н/о +12.5 +12.4 99 +11 +11 1012.2 1005.9
01 10.09 СЗ 3 н/о н/о +12.6 +12.6 100 +11 +11 1012.0 1005.6
02 10.09 СЗ 2 н/о н/о +12.7 +12.7 100 +12 +12 1011.7 1005.3
03 10.09 СЗ 2 н/о н/о +12.7 +12.7 100 +12 +12 1011.2 1004.8
04 10.09 СЗ 2 н/о н/о +12.8 +12.8 100 +12 +12 1010.6 1004.3
05 10.09 СЗ 2 н/о н/о +12.9 +12.9 100 +12 +12 1010.6 1004.3
06 10.09 С 4 н/о н/о +13.6 +13.6 100 +12 +12 1010.7 1004.3 +12.1 +13.7
07 10.09 СЗ 5 н/о н/о +14.2 +13.9 98 +12 +12 1010.8 1004.4
08 10.09 СЗ 6 н/о н/о +14.5 +13.9 96 +13 +13 1010.9 1004.6
09 10.09 СЗ 6 н/о н/о +14.4 +13.8 96 +12 +12 1011.2 1004.8
10 10.09 СЗ 6 н/о н/о +14.6 +13.2 91 +13 +13 1011.4 1005.0
11 10.09 СЗ 5 н/о н/о +14.5 +12.7 89 +13 +13 1011.5 1005.2
12 10.09 СЗ 6 н/о н/о +15.0 +12.7 86 +13 +13 1011.7 1005.3
13 10.09 СЗ 6 н/о н/о +15.2 +12.5 84 +14 +14 1011.9 1005.6
14 10.09 СЗ 7 н/о н/о +15.6 +13.0 85 +14 +14 1012.0 1005.7
15 10.09 СЗ 6 н/о н/о +16.0 +13.1 83 +15 +15 1012.2 1005.9
16 10.09 СЗ 6 н/о н/о +15.6 +12.8 83 +14 +14 1012.4 1006.1
17 10.09 З 7 н/о н/о +15.0 +12.7 86 +13 +13 1012.6 1006.3
18 10.09 З 6 н/о н/о +14.6 +12.4 87 +13 +13 1012.9 1006.5 +13.5 +16.1
19 10.09 З 6 н/о н/о +14.1 +12.0 87 +12 +12 1013.4 1007.0
20 10.09 З 5 н/о н/о +13.6 +11.8 89 +12 +12 1014.0 1007.6
21 10.09 З 5 н/о н/о +13.4 +11.8 90 +11 +11 1014.2 1007.8
22 10.09 З 3 н/о н/о +12.3 +11.1 92 +11 +11 1014.4 1008.0
23 10.09 З 3 н/о н/о +11.7 +10.3 91 +10 +10 1014.5 1008.0
00 11.09 З 3 н/о н/о +11.0 +9.8 92 +9 +9 1014.7 1008.3
01 11.09 ЮЗ 2 н/о н/о +10.3 +9.6 95 +9 +9 1015.0 1008.5
02 11.09 ЮЗ 2 н/о н/о +10.7 +9.8 94 +9 +9 1014.6 1008.2
03 11.09 ЮЗ 3 н/о н/о +10.4 +9.5 94 +8 +8 1014.4 1007.9
04 11.09 Ю 2 н/о н/о +9.9 +8.9 93 +8 +8 1013.8 1007.4
05 11.09 Ю 3 н/о н/о +10.1 +9.1 94 +8 +8 1013.5 1007.1
06 11.09 Ю 4 н/о н/о +11.9 +10.3 90 +10 +10 1012.9 1006.5 +9.5 +14.6
07 11.09 Ю 5 н/о н/о +13.3 +11.4 88 +11 +11 1012.5 1006.1
08 11.09 Ю 6 н/о н/о +14.3 +12.2 87 +12 +12 1012.3 1006.0
09 11.09 ЮЗ 6 н/о н/о +15.7 +11.4 76 +14 +14 1011.9 1005.5
10 11.09 ЮЗ 7 н/о н/о +14.0 +11.3 84 +12 +12 1011.7 1005.4
11 11.09 Ю 7 н/о н/о +12.4 +11.4 94 +9 +9 1011.6 1005.2
12 11.09 Ю 7
{13}
н/о н/о +12.9 +12.3 96 +10 +10 1010.8 1004.4
13 11.09 Ю 8 н/о н/о +13.7 +13.3 97 +11 +11 1010.1 1003.8
14 11.09 ЮЗ 7 н/о н/о +14.3 +14.0 98 +12 +12 1009.6 1003.3
15 11.09 ЮЗ 8 н/о н/о +15.1 +14.9 99 +13 +13 1009.6 1003.3
16 11.09 ЮЗ 5 н/о н/о +15.2 +14.4 95 +14 +14 1010.1 1003.8
17 11.09 З 5 н/о н/о +15.3 +14.1 93 +14 +14 1010.8 1004.4
18 11.09 З 5
{13}
н/о н/о +14.5 +13.0 91 +13 +13 1011.5 1005.2 +11.8 +15.9
19 11.09 З 5 н/о н/о +14.0 +12.5 91 +12 +12 1012.5 1006.2
20 11.09 З 4 н/о н/о +13.3 +12.0 92 +12 +12 1013.5 1007.1
21 11.09 З 3 н/о н/о +12.8 +11.7 93 +11 +11 1014.2 1007.8
22 11.09 З 3 н/о н/о +12.1 +11.1 94 +10 +10 1014.9 1008.5
23 11.09 ЮЗ 2 н/о н/о +11.2 +10.3 94 +10 +10 1015.9 1009.4
00 12.09 ЮЗ 3 н/о н/о +11.0 +10.3 95 +9 +9 1016.2 1009.7
01 12.09 ЮЗ 3 н/о н/о +11.1 +10.5 96 +9 +9 1016.7 1010.2
02 12.09 ЮЗ 2 н/о н/о +11.1 +10.7 97 +10 +10 1017.1 1010.6
03 12.09 ЮЗ 2 н/о н/о +10.8 +10.3 97 +9 +9 1017.2 1010.8
04 12.09 ЮЗ 2 н/о н/о +11.0 +10.6 97 +10 +10 1017.6 1011.2
05 12.09 ЮЗ 3 н/о н/о +11.3 +10.8 97 +10 +10 1018.2 1011.7
06 12.09 ЮЗ 3 н/о н/о +12.4 +11.4 94 +11 +11 1018.4 1012.0 +10.5 +14.6
07 12.09 ЮЗ 3 н/о н/о +14.1 +12.5 90 +13 +13 1019.1 1012.7
08 12.09 ЮЗ 5 н/о н/о +15.5 +12.1 80 +14 +14 1019.6 1013.2
09 12.09 ЮЗ 4 н/о н/о +14.8 +12.2 84 +14 +14 1020.3 1013.9
10 12.09 З 9 н/о н/о +16.4 +11.4 72 +15 +15 1020.5 1014.1
11 12.09 З 8 н/о н/о +16.6 +11.6 72 +15 +15 1020.7 1014.4
12 12.09 З 8 н/о н/о +15.7 +11.2 75 +14 +14 1021.0 1014.7
13 12.09 З 8 н/о н/о +16.0 +11.4 74 +14 +14 1021.1 1014.8
14 12.09 З 8 н/о н/о +15.9 +11.5 75 +14 +14 1021.1 1014.7
15 12.09 З 8
{12}
н/о н/о +16.1 +11.6 75 +14 +14 1020.9 1014.5
16 12.09 ЮЗ 6 н/о н/о +15.6 +12.1 80 +14 +14 1020.6 1014.3
17 12.09 ЮЗ 6 н/о н/о +15.0 +12.2 83 +13 +13 1020.7 1014.3
18 12.09 З 4
{12}
н/о н/о +13.6 +12.6 94 +12 +12 1020.7 1014.3 +12.2 +16.9
19 12.09 З 6 н/о н/о +13.2 +12.8 97 +11 +11 1020.8 1014.4
20 12.09 З 5 н/о н/о +12.6 +12.1 97 +10 +10 1020.8 1014.3
21 12.09 ЮЗ 3 н/о н/о +12.4 +12.3 99 +11 +11 1020.6 1014.1
22 12.09 ЮЗ 3 н/о н/о +12.5 +12.4 99 +11 +11 1020.0 1013.5
23 12.09 З 3 н/о н/о +12.6 +12.6 100 +11 +11 1019.7 1013.3
00 13.09 З 2 н/о н/о +12.7 +12.7 100 +12 +12 1019.3 1012.9
01 13.09 СЗ 4 н/о н/о +12.4 +12.2 99 +10 +10 1020.0 1013.6
02 13.09 З 3 н/о н/о +12.5 +12.2 98 +11 +11 1020.4 1013.9
03 13.09 З 4 н/о н/о +12.1 +10.5 90 +10 +10 1021.1 1014.6
04 13.09 З 4 н/о н/о +11.5 +10.0 90 +9 +9 1022.0 1015.5
05 13.09 З 4 н/о н/о +11.3 +9.4 88 +9 +9 1022.9 1016.4
06 13.09 З 5 н/о н/о +11.6 +9.4 86 +9 +9 1023.7 1017.2 +11.0 +13.8
07 13.09 З 5 н/о н/о +13.1 +9.5 79 +11 +11 1024.5 1018.1
08 13.09 СЗ 6 н/о н/о +14.0 +9.7 75 +12 +12 1025.5 1019.0
09 13.09 З 8
{13}
н/о н/о +14.6 +9.3 70 +12 +12 1026.6 1020.1
10 13.09 СЗ 8 н/о н/о +14.3 +8.6 69 +12 +12 1027.3 1020.8
11 13.09 СЗ 8 н/о н/о +14.6 +9.4 71 +12 +12 1027.8 1021.3
12 13.09 З 8
{14}
н/о н/о +15.4 +8.9 65 +14 +14 1028.4 1022.0
13 13.09 З 7 н/о н/о +15.3 +8.4 63 +14 +14 1029.1 1022.7
14 13.09 СЗ 7 н/о н/о +15.0 +8.7 66 +13 +13 1029.6 1023.2
15 13.09 З 8
{14}
н/о н/о +14.2 +7.8 65 +12 +12 1030.0 1023.5
16 13.09 З 8 н/о н/о +14.7 +7.7 63 +13 +13 1030.1 1023.7
17 13.09 З 7 н/о н/о +13.6 +8.4 71 +11 +11 1030.6 1024.1
18 13.09 З 5
{14}
н/о н/о +12.2 +7.8 74 +10 +10 1030.9 1024.4 +11.6 +16.1
19 13.09 З 3 н/о н/о +11.2 +7.8 80 +9 +9 1031.3 1024.7
20 13.09 З 3 н/о н/о +10.7 +7.8 82 +9 +9 1031.7 1025.1
21 13.09 З 4 н/о н/о +10.9 +8.0 82 +9 +9 1032.0 1025.5
22 13.09 З 3 н/о н/о +10.6 +7.6 82 +9 +9 1032.2 1025.6
23 13.09 З 3 н/о н/о +9.9 +7.5 85 +8 +8 1032.0 1025.4
00 14.09 З 3 н/о н/о +10.3 +7.9 85 +8 +8 1032.1 1025.5
01 14.09 З 4 н/о н/о +10.4 +8.1 86 +8 +8 1032.2 1025.6
02 14.09 З 3 н/о н/о +9.5 +7.5 87 +7 +7 1032.1 1025.5
03 14.09 З 3 н/о н/о +9.1 +7.1 87 +7 +7 1031.8 1025.3
04 14.09 З 2 н/о н/о +8.5 +6.8 89 +7 +7 1031.7 1025.1
05 14.09 ЮЗ 2 н/о н/о +8.5 +7.2 92 +7 +7 1031.6 1025.0
06 14.09 З 3 н/о н/о +10.1 +7.7 85 +8 +8 1031.5 1024.9 +8.2 +12.2
07 14.09 З 3 н/о н/о +12.7 +8.9 78 +11 +11 1031.6 1025.1
08 14.09 З 5 н/о н/о +13.7 +9.5 76 +12 +12 1031.2 1024.7
09 14.09 З 7 н/о н/о +15.1 +9.5 69 +13 +13 1031.5 1025.1
10 14.09 ЮЗ 8 н/о н/о +14.9 +8.2 64 +13 +13 1031.3 1024.9
11 14.09 З 8 н/о н/о +15.4 +9.0 66 +14 +14 1030.3 1023.9
12 14.09 З 9 н/о н/о +15.7 +8.4 62 +14 +14 1029.7 1023.3
13 14.09 З 9 н/о н/о +15.4 +8.0 61 +13 +13 1029.1 1022.7
14 14.09 З 8 н/о н/о +15.8 +8.9 64 +14 +14 1028.1 1021.7
15 14.09 З 8 н/о н/о +15.0 +9.3 69 +13 +13 1027.1 1020.7
16 14.09 ЮЗ 7 н/о н/о +14.3 +9.4 72 +12 +12 1026.0 1019.5
17 14.09 ЮЗ 6 н/о н/о +13.9 +9.3 74 +12 +12 1024.6 1018.2
18 14.09 ЮЗ 6 н/о н/о +13.4 +9.4 77 +11 +11 1023.8 1017.4 +10.1 +16.2
19 14.09 ЮЗ 8 н/о н/о +13.3 +9.5 78 +11 +11 1022.5 1016.1
20 14.09 ЮЗ 8 н/о н/о +13.6 +9.6 77 +11 +11 1021.4 1014.9
21 14.09 ЮЗ 9-15
{15}
н/о н/о +13.8 +9.8 77 +11 +11 1020.3 1013.9
22 14.09 ЮЗ 9 н/о н/о +14.1 +10.4 78 +12 +12 1019.2 1012.8
23 14.09 ЮЗ 9 н/о н/о +14.4 +9.9 74 +12 +12 1018.1 1011.7
00 15.09 ЮЗ 10-15
{16}
н/о н/о +14.9 +11.2 79 +12 +12 1016.4 1010.1
01 15.09 ЮЗ 10 н/о н/о +15.1 +11.5 79 +13 +13 1014.9 1008.5
02 15.09 ЮЗ 10 н/о н/о +15.6 +11.5 77 +13 +13 1013.6 1007.3
03 15.09 З 12-18
{18}
н/о н/о +15.4 +12.2 81 +13 +13 1012.2 1005.9
04 15.09 З 11 н/о н/о +13.8 +13.4 97 +11 +11 1011.9 1005.5
05 15.09 З 11 н/о н/о +13.9 +13.5 97 +11 +11 1011.5 1005.2
06 15.09 СЗ 8
{18}
н/о н/о +11.9 +11.5 97 +8 +8 1011.8 1005.4 +11.9 +15.8
07 15.09 З 5 н/о н/о +12.1 +10.4 89 +10 +10 1012.0 1005.6
08 15.09 З 7 н/о н/о +13.5 +9.9 79 +11 +11 1012.5 1006.1
09 15.09 З 7 н/о н/о +14.2 +7.6 64 +12 +12 1012.8 1006.4
10 15.09 З 11 н/о н/о +14.6 +8.0 65 +12 +12 1013.1 1006.7
11 15.09 З 10 н/о н/о +13.5 +8.0 69 +11 +11 1013.2 1006.8
12 15.09 З 10-16
{16}
н/о н/о +13.1 +7.8 70 +10 +10 1013.6 1007.3
13 15.09 З 11 н/о н/о +12.9 +6.6 66 +10 +10 1013.7 1007.4
14 15.09 З 10 н/о н/о +13.1 +7.1 67 +10 +10 1013.8 1007.4
15 15.09 З 10-15
{18}
н/о н/о +12.6 +8.0 74 +9 +9 1014.2 1007.7
16 15.09 З 10 н/о н/о +12.6 +7.0 69 +9 +9 1013.9 1007.5
17 15.09 З 9 н/о н/о +11.8 +8.4 80 +8 +8 1013.7 1007.3
18 15.09 З 9
{19}
н/о н/о +12.1 +7.5 73 +9 +9 1014.0 1007.6 +11.2 +15.1
19 15.09 З 9 н/о н/о +12.1 +6.8 70 +9 +9 1013.9 1007.5
20 15.09 З 11 н/о н/о +12.3 +7.4 72 +9 +9 1014.1 1007.7
21 15.09 З 9
{17}
н/о н/о +11.7 +7.2 74 +8 +8 1014.3 1007.8
22 15.09 З 9 н/о н/о +11.6 +7.1 74 +8 +8 1014.5 1008.1
23 15.09 З 7
{14}
н/о н/о +11.4 +7.5 77 +8 +8 1014.9 1008.5
00 16.09 З 8
{17}
н/о н/о +11.5 +6.1 69 +8 +8 1015.1 1008.6
01 16.09 З 7 н/о н/о +11.3 +5.3 67 +8 +8 1015.3 1008.9
02 16.09 З 6 н/о н/о +10.8 +7.3 79 +8 +8 1015.3 1008.9
03 16.09 З 5
{13}
н/о н/о +10.6 +5.5 71 +8 +8 1015.2 1008.7
04 16.09 З 5 н/о н/о +10.2 +7.6 84 +7 +7 1015.0 1008.5
05 16.09 З 5 н/о н/о +10.4 +6.3 76 +7 +7 1014.9 1008.4

 

Местоположение метеостанции Мейруп (Дания): широта 56.38 долгота 8.67 высота над уровнем моря 55 м.

В архиве по умолчанию представлена погода в Мейрупе за последнюю неделю. Архивные данные за месяц целиком и за предыдущие месяцы, начиная с января 2011 года, Вы можете получить, выбрав интересующий диапазон дат из раскрывающегося списка и нажав кнопку "Ввод!".


*Определитесь, кто Вы:
робот инопланетянин человек

Внимание! Время в таблицах - всемирное. Для получения местного времени необходимо прибавить поправку, которая равна 1 ч.

Смотрите также архив погоды в соседних городах и на ближайших метеорологических станциях:

Погода в Карупе (Дания) (29 км)
Погода в Тыбороене (Дания) (45 км)
Погода в Исенваде (Дания) (45 км)
Погода в Исенваде (Дания) (45 км)
Погода в Боррисе (Дания) (46 км)
Погода в Силструпе (Дания) (50 км)
Погода в Хвиде Санде (Дания) (54 км)
Погода в Фоулуме (Дания) (57 км)
Погода в Алеструпе (Дания) (65 км)
Погода в Биллунде (Дания) (79 км)

Пояснения к столбцам:

Ветер - указаны скорость ветра в м/с - средняя за 10 мин, порывы в срок и между сроками (в фигурных скобках) и направление, откуда дует ветер: С - северный, СВ - северо-восточный, В - восточный, ЮВ - юго-восточный, Ю - южный, ЮЗ - юго-западный, З - западный, СЗ - северо-западный.
Видимость - горизонтальная дальность видимости в метрах или километрах. При видимости от 1 до 10 км при отсутствии осадков обычно наблюдается дымка, при ухудшении видимости до 1 км и менее - туман. В сухую погоду видимость может ухудшаться дымом, пылью или мглою.
Явления - указаны атмосферные явления, наблюдавшиеся в срок или в последний час перед сроком; фигурными скобками обозначены явления, наблюдавшиеся между сроками (за 1-3 часа до срока); квадратными скобками обозначены град или гололедные отложения с указанием их диаметра в мм.
Облачность - указаны через наклонную черту общая и нижняя облачность в баллах и высота нижней границы облаков в метрах; квадратными скобками обозначены формы облаков: Ci - перистые, Cs - перисто-слоистые, Cc - перисто-кучевые, Ac - высококучевые, As - высокослоистые, Sc - слоисто-кучевые, Ns - слоисто-дождевые, Cu - кучевые, Cb - кучево-дождевые. Подробнее классификацию облаков см. в Атласе облаков (PDF).
T - Температура воздуха - температура, измеренная на высоте 2 м над землей.
Td - Температура точки росы - температура, при понижении до которой содержащийся в воздухе водяной пар достигнет насыщения.
f - Относительная влажность воздуха - влажноcть воздуха, измеренная на высоте 2 м над землей.
Te - Эффективная температура - температура, которую ощущает одетый по сезону человек в тени. Характеристика душности погоды. При расчете учитывается влияние влажности воздуха и скорости ветра на теплоощущения человека.
Tes - Эффективная температура на солнце - температура, которую ощущает человек, с поправкой на солнечный нагрев. Характеристика знойности погоды. Зависит от высоты солнца над горизонтом, облачности и скорости ветра. Ночью, в пасмурную погоду, а также при ветре 12 м/с и более поправка равна нулю.
P - Атмосферное давление - приведенное к уровню моря атмосферное давление.
Po - Атмосферное давление - измеренное на уровне метеостанции атмосферное давление.
Tmin - Минимальная температура - минимум температуры воздуха на высоте 2 м над землей.
Tmax - Максимальная температура - максимум температуры воздуха на высоте 2 м над землей.
R - Количество осадков - Количество выпавших осадков за период времени, мм. При наведении курсора мыши на число - период времени, за который выпало указанное количество осадков.
R24 - Количество осадков - Количество выпавших осадков за 24 часа, мм.
S - Снежный покров - Высота снежного покрова, см. При наведении курсора мыши на число - состояние снежного покрова и степень покрытия местности в баллах.